Preview of NWS' New Version of Forecast
This preview is not operational and should not be used for support decisions.

Regional Weather Roundup (RWR)

Issued by Little Rock, AR (LZK)

                            
000
ASUS44 KLZK 200705
RWRLZK

WEATHER ROUNDUP FOR ARKANSAS
NATIONAL WEATHER SERVICE LITTLE ROCK AR
200 AM CDT MON MAY 20 2019

NOTE: "FAIR" INDICATES FEW OR NO CLOUDS BELOW 12,000 FEET WITH NO
SIGNIFICANT WEATHER AND/OR OBSTRUCTIONS TO VISIBILITY.

ARZ001-003-010-029-200800-
NORTHWEST ARKANSAS
  
CITY           SKY/WX    TMP DP  RH WIND       PRES   REMARKS
FAYETTEVILLE   CLEAR     51  51 100 CALM      30.01S                  
FORT SMITH     CLEAR     63  58  83 NE5       29.97R                  
HARRISON       CLEAR     54  53  97 CALM      30.01F                  
BENTONVILLE    CLEAR     57  54  89 CALM      30.03S                  
ROGERS         CLEAR     54  52  93 NE3       30.02S                  
SILOAM SPGS    CLEAR     55  53  93 E3        30.01S                  
HIGHFILL       CLEAR     56  52  86 CALM      30.01S                  
$$

ARZ004-005-016-200800-
NORTH CENTRAL ARKANSAS
  
CITY           SKY/WX    TMP DP  RH WIND       PRES   REMARKS
BATESVILLE     CLEAR     58  57  97 NW3       29.99S                  
FLIPPIN        CLEAR     55  54  96 CALM      30.01S                  
MTN HOME       CLEAR     55  53  93 CALM      29.99F                  
$$

ARZ040-041-200800-
WEST CENTRAL ARKANSAS
  
CITY           SKY/WX    TMP DP  RH WIND       PRES   REMARKS
MENA           CLEAR    N/A N/A N/A CALM      29.98S                  
MOUNT IDA      CLEAR     58  57  97 CALM      29.95F                  
$$

ARZ009-017-025-026-028-200800-
NORTHEAST ARKANSAS
  
CITY           SKY/WX    TMP DP  RH WIND       PRES   REMARKS
JONESBORO      FAIR      61  59  93 N3        29.97S                  
NEWPORT        FAIR      63  60  90 NW6       29.98S                  
WALNUT RIDGE   FAIR      62  58  86 N7        29.98S                  
BLYTHEVILLE    FAIR      66  58  75 W3        29.98R                  
$$

ARZ022-023-033-042-044-200800-
CENTRAL ARKANSAS
  
CITY           SKY/WX    TMP DP  RH WIND       PRES   REMARKS
LITTLE ROCK    MOCLDY    62  60  93 CALM      29.97S                  
N LITTLE ROCK    N/A     66  59  78 N6        29.99S                  
BENTON         SUNNY     61  59  94 CALM      29.96S                  
JACKSONVILLE   CLEAR     60  60 100 CALM      29.96S                  
CONWAY         PTSUNNY   64  63  94 CALM      29.97R                  
SEARCY         FAIR      60  60 100 NW3       29.98R                  
HOT SPRINGS    PTCLDY    62  61  96 CALM      29.97R                  
RUSSELLVILLE   PTCLDY    59  58  96 CALM      29.97R                  
CLINTON        FAIR      55  55 100 CALM      30.00S                  
$$

ARZ036-200800-
EAST ARKANSAS
  
CITY           SKY/WX    TMP DP  RH WIND       PRES   REMARKS
WEST MEMPHIS   FAIR      65  65 100 CALM      29.97R                  
$$

ARZ050-053-066-070-073-200800-
SOUTHWEST ARKANSAS
  
CITY           SKY/WX    TMP DP  RH WIND       PRES   REMARKS
ARKADELPHIA    FAIR      65  65 100 CALM      29.96F                  
CAMDEN         MOCLDY    66  64  94 CALM      29.94S                  
TEXARKANA      MOCLDY    67  65  93 SE3       29.92F                  
EL DORADO      FAIR      65  65 100 NE3       29.95R                  
DE QUEEN       CLEAR     63  62  97 CALM      29.92S                  
$$

ARZ056-057-069-200800-
SOUTHEAST ARKANSAS
  
CITY           SKY/WX    TMP DP  RH WIND       PRES   REMARKS
PINE BLUFF     FAIR      66  64  93 CALM      29.95F                  
STUTTGART      FAIR      70  63  78 E7        29.97S                  
MONTICELLO     FAIR      68  65  90 CALM      29.96S                  

$$